{"data":{"norad_id":61955,"intl_designator":"2024-209S","name":"STARLINK-32583","alt_names":[],"object_type":"PAYLOAD","status":"ACTIVE","operator":null,"country":"US","launch_date":"2024-11-14","launch_site_code":"AFWTR","launch_vehicle":null,"mission":null,"orbit_class":"UNKNOWN","rcs_meters":null,"size_class":null,"mass_kg":null,"dimensions":null,"purposes":["comms"],"wikipedia_slug":null,"has_3d_model":false,"image_url":null,"decayed_at":null,"tle_current":{"epoch":"2026-09-21T09:16:07.209120Z","epoch_age_seconds":109075,"freshness":"FRESH","line1":"1 61955U 24209S   26264.38619455  .00023737  00000+0  71132-3 0  9992","line2":"2 61955  53.1605 303.8279 0001239  82.2915 277.8228 15.34405137105007","mean_motion":15.34405137,"eccentricity":0.0001239,"inclination_deg":53.1605,"raan_deg":303.8279,"arg_perigee_deg":82.2915,"mean_anomaly_deg":277.8228,"bstar":0.00071132,"rev_number":10500,"period_min":93.847443890564,"perigee_km":461.8403937891,"apogee_km":463.53555021716,"semimajor_km":6840.8249720031,"source":"CELESTRAK","updated_at":"2026-09-22T09:00:49.456845Z"}}}